This is the latest recevied weather packets stored in our database for station/object DK8RG-15. If no packets are shown the sender has not sent any weather packets the latest 10 day(s).
| Time | Temp. | Humidity | Pressure | Rain* | Wind** | Luminosity | Snow |
|---|---|---|---|---|---|---|---|
| 1777932028 | 15° C | 70% | 1010 hPa | 0 mm | - | - | - |
| 1777931418 | 15° C | 69% | 1010 hPa | 0 mm | - | - | - |
| 1777930816 | 15° C | 69% | 1010 hPa | 0 mm | - | - | - |
| 1777930217 | 16.11° C | 68% | 1010.1 hPa | 0 mm | - | - | - |
| 1777929617 | 16.11° C | 68% | 1010 hPa | 0 mm | - | - | - |
| 1777929016 | 16.11° C | 67% | 1010 hPa | 0 mm | - | - | - |
| 1777928416 | 16.11° C | 67% | 1010 hPa | 0 mm | - | - | - |
| 1777927817 | 16.11° C | 67% | 1010 hPa | 0 mm | - | - | - |
| 1777927216 | 16.11° C | 68% | 1010 hPa | 0 mm | - | - | - |
| 1777926617 | 15.56° C | 68% | 1010 hPa | 0 mm | - | - | - |
| 1777926018 | 16.11° C | 67% | 1010 hPa | 0 mm | - | - | - |
| 1777925418 | 16.11° C | 66% | 1010 hPa | 0 mm | - | - | - |
| 1777924817 | 16.11° C | 66% | 1010 hPa | 0 mm | - | - | - |
| 1777924218 | 16.11° C | 65% | 1009.9 hPa | 0 mm | - | - | - |
| 1777923616 | 16.11° C | 64% | 1009.9 hPa | 0 mm | - | - | - |
| 1777923016 | 16.67° C | 63% | 1009.9 hPa | 0 mm | - | - | - |
| 1777922418 | 17.22° C | 62% | 1010 hPa | 0 mm | - | - | - |
| 1777921817 | 17.22° C | 62% | 1010 hPa | 0 mm | - | - | - |
| 1777921217 | 17.22° C | 61% | 1010 hPa | 0 mm | - | - | - |
| 1777920617 | 17.78° C | 60% | 1010 hPa | 0 mm | - | - | - |
| 1777920017 | 17.78° C | 60% | 1009.9 hPa | 0 mm | - | - | - |
| 1777919416 | 18.33° C | 58% | 1008.9 hPa | 0 mm | - | - | - |
| 1777918817 | 18.89° C | 57% | 1009.9 hPa | 0 mm | - | - | - |
| 1777918216 | 18.89° C | 57% | 1008.8 hPa | 0 mm | - | - | - |
| 1777917616 | 18.89° C | 56% | 1008.8 hPa | 0 mm | - | - | - |
* Rain latest hour (hover to see other rain measurements)
** Current wind speed in m/s (hover to see current wind gust speed)